This is the latest recevied weather packets stored in our database for station/object F4FSZ-11. If no packets are shown the sender has not sent any weather packets the latest 10 day(s).
| Time | Temp. | Humidity | Pressure | Rain* | Wind** | Luminosity | Snow |
|---|---|---|---|---|---|---|---|
| 1777936731 | 10.56° C | 100% | 1005.7 hPa | - | - | - | - |
| 1777935831 | 10.56° C | 100% | 1005.8 hPa | - | - | - | - |
| 1777934931 | 10.56° C | 100% | 1006 hPa | - | - | - | - |
| 1777934031 | 11.11° C | 100% | 1006 hPa | - | - | - | - |
| 1777933131 | 11.11° C | 100% | 1006 hPa | - | - | - | - |
| 1777932231 | 11.11° C | 100% | 1006.3 hPa | - | - | - | - |
| 1777931331 | 11.11° C | 100% | 1006.3 hPa | - | - | - | - |
| 1777930431 | 11.67° C | 100% | 1006.3 hPa | - | - | - | - |
| 1777929531 | 12.22° C | 99% | 1006.4 hPa | - | - | - | - |
| 1777928631 | 12.78° C | 99% | 1006.6 hPa | - | - | - | - |
| 1777927731 | 12.22° C | 100% | 1006.8 hPa | - | - | - | - |
| 1777926831 | 12.22° C | 99% | 1006.9 hPa | - | - | - | - |
| 1777925931 | 12.22° C | 100% | 1006.8 hPa | - | - | - | - |
| 1777925030 | 12.78° C | 99% | 1006.9 hPa | - | - | - | - |
| 1777924130 | 12.78° C | 98% | 1006.7 hPa | - | - | - | - |
| 1777923230 | 13.33° C | 96% | 1006.7 hPa | - | - | - | - |
| 1777922330 | 13.89° C | 95% | 1006.8 hPa | - | - | - | - |
| 1777921430 | 14.44° C | 92% | 1006.8 hPa | - | - | - | - |
| 1777920530 | 14.44° C | 90% | 1006.8 hPa | - | - | - | - |
| 1777919630 | 15.56° C | 87% | 1006.7 hPa | - | - | - | - |
| 1777918730 | 15° C | 89% | 1006.7 hPa | - | - | - | - |
| 1777917830 | 15.56° C | 90% | 1006.8 hPa | - | - | - | - |
| 1777916930 | 15.56° C | 89% | 1006.8 hPa | - | - | - | - |
| 1777916030 | 15° C | 91% | 1006.7 hPa | - | - | - | - |
| 1777915130 | 15° C | 89% | 1006.6 hPa | - | - | - | - |
* Rain since midnight (hover to see other rain measurements)
** Current wind speed in m/s (hover to see current wind gust speed)